Location: Campillo
(40.8621°N, 4.2488°W)
Time: 19:14:35
(UTC+00:00)

Cosmos 1933 Rocket - Pass Details

Date: 29 September 2021
Orbit: 607 x 629 km, 82.5° (Epoch: 15 October)

Event Time Altitude Azimuth Distance (km) Brightness Sun altitude
Rises 02:31:53 0° 11° (N) 2,904 7.6 -39.7°
Reaches altitude 10° 02:35:03 10° 35° (NE) 1,997 6.8 -39.2°
Enters shadow 02:35:45 12° 44° (NE) 1,860 6.7 -39.1°
